This is the latest recevied weather packets stored in our database for station/object YD1OCG-15. If no packets are shown the sender has not sent any weather packets the latest 10 day(s).
| Time | Temp. | Humidity | Pressure | Rain* | Wind** | Luminosity | Snow |
|---|---|---|---|---|---|---|---|
| 1777789075 | 30° C | 82% | 1010 hPa | - | - | - | - |
| 1777787274 | 30° C | 82% | 1010 hPa | - | - | - | - |
| 1777785474 | 29.44° C | 85% | 1010 hPa | - | - | - | - |
| 1777783674 | 29.44° C | 78% | 1010 hPa | - | - | - | - |
| 1777781874 | 29.44° C | 78% | 1013 hPa | - | - | - | - |
| 1777780075 | 29.44° C | 72% | 1012 hPa | - | - | - | - |
| 1777778279 | 30° C | 76% | 1013 hPa | - | - | - | - |
| 1777776474 | 30° C | 71% | 1012 hPa | - | - | - | - |
| 1777774674 | 29.44° C | 79% | 1014 hPa | - | - | - | - |
| 1777772879 | 30° C | 73% | 1013 hPa | - | - | - | - |
| 1777769275 | 29.44° C | 83% | 1012 hPa | - | - | - | - |
| 1777767474 | 28.33° C | 87% | 1012 hPa | - | - | - | - |
| 1777758474 | 27.22° C | 87% | 1011 hPa | - | - | - | - |
| 1777754875 | 27.22° C | 87% | 1011 hPa | - | - | - | - |
| 1777753074 | 27.22° C | 85% | 1012 hPa | - | - | - | - |
| 1777738679 | 28.89° C | 87% | 1014 hPa | - | - | - | - |
| 1777736874 | 28.89° C | 89% | 1013 hPa | - | - | - | - |
| 1777735051 | 28.33° C | 87% | 1014 hPa | - | - | - | - |
| 1777734758 | 28.33° C | 87% | 1014 hPa | - | - | - | - |
| 1777731163 | 27.78° C | 84% | 1012 hPa | - | - | - | - |
| 1777727559 | 28.89° C | 89% | 1012 hPa | - | - | - | - |
| 1777723958 | 29.44° C | 87% | 1011 hPa | - | - | - | - |
| 1777722159 | 28.89° C | 87% | 1011 hPa | - | - | - | - |
| 1777716002 | 29.44° C | 86% | 1009 hPa | - | - | - | - |
| 1777714200 | 28.89° C | 86% | 1008 hPa | - | - | - | - |
* Rain since midnight (hover to see other rain measurements)
** Current wind speed in m/s (hover to see current wind gust speed)